RH
89 88 89 84 71 77 81 79 73 72 73 70 79 96 98 94 89 76 54 81 90 88 84 84 91 94 96 98 92 93 95 96 92 83 90 95 91 96 96 90 93 93 96
83 87 82 87 77 72 83 85 80 77 76 81 90 97 99 90 94 82 77 95 96 95 95 97 96 97 96 94 90 92 86 74 75 80 89 91 90 96 98 83 85 86 92
77 77 71 74 76 67 66 80 83 79 80 81 86 95 99 92 95 89 84 95 97 96 96 97 96 84 89 94 90 82 78 66 67 77 79 83 87 96 97 92 96 92 90
64 65 64 65 65 63 60 60 78 80 78 79 81 89 90 91 96 96 87 96 95 96 96 94 89 91 78 65 69 70 69 67 68 59 59 66 85 93 95 96 96 96 98
82 78 70 66 64 62 60 56 57 80 84 80 80 84 85 90 97 94 94 94 95 95 91 90 91 90 65 58 58 68 60 56 62 61 48 64 82 90 88 83 84 86 86
82 84 77 66 64 62 59 55 55 60 83 82 80 84 87 90 97 80 91 93 92 88 84 90 95 84 65 57 61 69 70 67 66 61 52 68 83 90 91 89 90 90 90
85 82 83 73 67 66 63 60 67 66 74 84 84 84 87 90 86 76 90 94 85 81 82 94 93 66 55 49 62 66 69 70 71 61 54 66 85 92 91 92 92 90 91
76 81 86 84 75 68 70 72 86 76 69 79 82 84 85 88 84 76 91 85 79 76 78 95 60 44 40 54 65 68 71 73 75 66 51 62 84 90 90 83 85 76 79
83 89 93 86 83 71 64 65 78 88 81 72 80 81 82 83 85 73 84 82 78 85 84 86 57 37 36 59 64 67 71 76 74 68 50 55 77 91 77 66 64 60 59
74 76 81 88 85 78 78 68 78 86 86 76 77 82 83 84 86 70 73 73 81 86 78 82 57 38 35 54 63 61 62 70 69 67 64 52 67 83 64 64 65 67 67
69 73 84 83 84 83 86 87 66 59 76 82 76 81 83 86 83 76 76 77 81 78 83 82 60 47 38 37 48 57 58 58 60 62 56 44 56 65 62 63 66 68 69
78 72 75 88 86 83 78 76 93 78 60 64 85 82 85 88 80 77 76 74 78 87 83 84 69 54 46 41 39 53 54 55 56 57 53 48 51 61 59 65 69 70 69
74 79 61 72 90 72 76 81 90 84 70 63 89 90 89 89 81 79 77 77 80 80 84 86 82 66 48 42 40 39 48 49 50 51 50 47 44 59 65 65 71 71 70
60 68 73 89 84 78 74 81 76 76 72 62 70 92 100 89 85 80 78 78 81 85 88 83 72 56 49 46 46 41 48 49 46 46 45 45 46 47 58 67 71 71 71
72 71 71 73 80 75 87 77 76 73 72 77 67 72 91 91 93 84 82 80 79 86 90 77 66 56 49 55 53 51 48 48 47 45 45 48 55 54 55 63 70 72 70
60 69 71 81 73 67 69 81 68 74 71 65 75 71 81 94 93 99 92 87 81 82 91 74 62 51 43 53 52 49 48 47 46 46 48 52 59 62 61 64 66 68 75
53 67 71 72 71 72 86 74 67 64 60 73 89 66 78 92 86 82 87 85 84 84 88 78 62 55 54 56 53 50 49 49 48 48 56 55 62 63 65 64 63 65 67
64 69 68 66 60 64 77 71 66 65 69 74 92 90 68 77 86 78 89 78 84 83 78 79 66 66 63 56 51 48 49 54 54 58 61 61 62 63 65 65 66 68 71
59 64 72 74 70 48 66 87 81 73 75 75 74 77 66 69 73 87 84 82 78 77 69 67 70 69 61 54 51 48 50 55 58 58 60 62 62 63 64 65 68 70 71
57 58 69 70 68 69 68 92 97 83 77 75 75 69 74 66 76 77 75 78 71 64 75 68 63 60 54 51 52 54 60 60 59 58 62 62 61 63 65 65 68 67 68
73 68 70 70 78 82 96 99 100 99 90 77 73 80 80 74 73 79 74 74 75 72 67 63 60 57 57 54 53 60 63 61 58 57 61 59 61 59 65 62 62 61 66
71 79 74 75 81 91 92 94 90 86 93 86 80 80 76 76 72 71 70 71 68 65 62 60 61 63 60 58 65 70 78 67 59 61 62 59 58 58 62 59 59 55 59
99 99 92 75 72 66 81 92 97 94 93 97 93 96 88 85 74 69 68 70 63 61 62 66 68 66 67 65 66 68 94 88 78 66 64 65 62 59 59 59 59 61 64
100 100 100 100 98 84 82 82 92 91 89 78 82 88 91 88 81 72 71 67 64 65 74 73 71 67 67 73 78 72 72 72 86 81 72 71 65 61 59 61 62 65 64
94 96 85 92 98 96 98 96 97 100 78 88 93 93 91 91 90 84 84 81 72 80 80 76 77 76 72 80 78 93 90 96 85 91 92 81 72 70 72 62 64 63 64
99 94 85 87 90 93 99 100 100 100 100 100 100 96 92 95 97 89 84 96 92 81 80 79 69 69 79 69 75 68 78 90 97 97 97 94 84 74 71 71 64 64 64
Wind_Speed
19 28 24 22 22 22 21 20 18 18 17 15 15 15 16 16 17 17 17 19 19 19 18 18 17 18 18 20 20 19 18 17 16 17 19 21 17 18 19 19 19 15 16
29 28 25 22 21 22 20 20 18 18 17 15 14 15 16 17 17 17 17 17 17 18 17 17 19 19 19 20 19 19 19 18 16 16 17 17 17 16 16 17 17 18 19
33 30 26 24 22 22 21 19 19 18 17 16 15 15 16 17 17 16 17 17 16 16 18 19 19 18 17 19 18 19 18 17 16 14 14 14 14 14 14 13 15 15 14
32 32 28 25 22 20 20 19 17 18 18 17 16 15 16 17 17 18 19 18 17 20 19 20 19 18 18 19 18 15 12 12 11 12 12 14 14 13 12 13 12 12 12
30 30 28 25 22 20 18 17 18 17 17 17 18 17 17 18 18 18 20 18 21 22 20 21 18 17 21 19 16 15 14 15 13 11 12 12 14 12 12 12 12 12 12
30 28 26 23 21 19 17 15 15 18 17 17 18 18 18 18 20 18 22 21 22 19 18 19 18 19 20 17 16 16 15 14 11 10 12 13 13 12 12 13 13 12 12
28 28 26 24 22 18 16 14 14 14 18 17 18 19 18 20 21 20 21 22 20 19 18 18 17 17 18 19 16 14 12 12 10 9 11 12 12 11 11 12 12 12 12
28 30 26 22 20 19 16 15 14 13 16 17 18 19 19 20 21 21 22 21 19 15 18 17 17 17 18 19 16 13 11 12 9 8 9 11 11 10 10 10 10 10 10
23 25 26 23 20 18 16 16 15 10 12 15 16 17 18 20 22 22 22 20 17 16 17 16 16 16 19 19 15 13 11 12 9 8 8 8 10 9 9 9 9 8 8
18 19 22 22 20 19 18 16 15 13 9 12 13 14 19 22 23 26 23 20 19 18 18 17 16 16 18 18 16 13 10 10 8 6 6 6 7 7 7 7 7 6 7
16 17 23 23 21 19 18 17 16 13 10 9 13 14 19 24 25 25 24 22 18 19 21 18 16 16 16 16 15 13 12 9 9 7 4 5 6 6 5 5 5 5 5
17 19 23 24 22 20 19 19 17 16 12 8 10 17 21 26 27 25 23 22 21 18 18 17 17 16 15 14 15 15 12 9 8 8 5 4 5 6 5 4 4 4 3
20 22 23 25 23 21 20 19 18 14 14 6 4 16 23 25 27 27 25 25 24 24 22 20 18 17 16 14 13 14 12 10 10 11 7 5 6 7 6 5 4 3 2
13 21 23 24 21 19 21 21 18 17 13 12 5 10 21 28 30 30 28 29 27 26 24 22 19 17 16 14 13 12 12 10 10 11 8 7 6 7 8 7 6 4 3
11 14 23 21 22 23 23 21 18 17 13 10 12 10 22 27 29 31 30 29 30 26 25 24 21 19 17 16 13 13 12 11 11 11 12 9 7 7 8 8 7 7 6
15 17 20 21 21 22 23 19 16 18 14 15 20 16 27 28 25 25 29 28 29 26 25 24 22 20 19 17 15 15 14 13 13 13 13 12 9 8 8 9 8 8 9
18 17 18 20 15 18 24 22 21 21 20 8 22 23 28 28 23 22 30 30 29 30 26 24 22 19 19 18 17 16 15 14 14 14 13 15 10 11 10 9 8 9 9
17 20 20 20 17 11 19 22 23 22 26 12 22 28 25 29 28 30 33 33 34 33 29 28 24 23 20 21 19 18 18 16 16 16 14 15 15 14 14 12 11 11 10
21 20 22 21 19 14 17 22 22 18 23 24 27 28 27 30 34 34 34 33 34 34 32 33 27 26 23 22 19 18 18 18 18 17 16 17 19 19 16 15 13 11 11
23 22 23 20 18 16 19 26 21 19 22 23 27 28 26 39 39 39 34 31 29 31 33 31 28 26 24 21 19 17 18 18 17 18 18 18 14 18 17 15 13 11 10
22 23 23 20 19 19 21 22 22 24 25 30 29 38 36 33 35 38 37 34 33 35 35 32 29 26 24 22 16 18 18 17 18 20 20 17 20 18 19 15 12 10 9
19 26 26 23 20 22 22 23 18 23 29 31 29 32 37 39 36 36 34 35 36 37 34 32 30 26 26 22 11 5 2 8 19 20 20 19 21 17 19 14 11 9 8
9 13 16 19 18 20 19 18 17 15 12 22 19 24 31 39 37 35 36 37 37 35 35 34 34 30 26 26 23 7 2 4 3 11 21 20 21 22 20 16 12 9 8
8 6 5 3 6 16 19 21 25 23 18 17 25 25 27 30 35 34 34 38 38 37 36 38 37 35 30 24 23 19 7 6 3 0 2 12 19 21 21 17 14 11 9
7 8 6 4 1 3 14 23 22 22 18 16 20 26 27 26 34 32 33 34 37 33 32 33 37 36 36 27 25 15 15 8 4 3 2 3 4 6 13 17 16 13 10
5 5 4 4 3 3 3 6 18 21 18 16 20 20 22 18 18 34 34 31 27 25 24 30 32 31 29 21 28 27 28 14 14 9 3 4 14 22 15 12 15 14 12
Wind_Direction
179 169 172 164 159 155 155 160 159 158 155 151 148 143 143 145 143 139 137 131 125 128 128 131 129 118 113 118 111 109 111 111 109 108 99 92 95 83 83 81 78 85 82
166 168 170 165 162 159 157 158 166 164 162 159 155 150 149 152 149 142 142 142 143 144 141 141 129 122 115 114 112 109 108 105 107 109 106 99 94 90 88 91 80 77 76
165 168 168 167 166 165 162 164 167 168 167 167 163 161 157 157 156 150 149 146 147 147 139 132 127 125 129 121 117 115 111 104 106 108 107 103 96 90 88 93 83 83 84
171 171 169 168 168 166 165 167 170 172 175 174 172 170 168 166 162 155 153 151 153 143 139 132 134 129 133 126 120 115 121 122 112 104 110 102 93 91 91 87 88 88 83
169 173 170 168 168 166 164 168 175 179 181 184 181 178 178 173 166 160 156 159 150 147 151 142 137 140 138 131 121 109 112 122 120 107 108 107 104 94 93 90 87 83 80
170 174 172 169 171 170 168 171 178 183 185 193 188 186 182 181 171 175 162 159 158 161 158 151 142 145 141 140 129 123 121 125 116 105 107 104 99 98 94 90 85 81 77
171 175 174 172 173 173 170 168 173 182 188 193 196 192 188 185 179 175 169 166 161 163 165 156 150 148 148 148 137 134 135 131 114 108 114 111 106 103 98 94 90 85 81
172 175 174 177 173 172 172 169 172 180 195 195 199 200 195 190 182 178 167 162 158 160 162 157 156 154 154 152 145 137 137 145 121 104 118 117 115 109 103 98 92 86 82
173 175 174 175 177 174 174 174 171 172 186 194 202 205 200 191 184 174 169 167 173 170 168 166 161 158 159 158 152 143 133 148 133 114 116 122 124 121 112 104 95 86 79
183 186 181 178 178 177 171 172 172 171 167 191 198 205 199 190 180 169 172 179 182 180 180 177 165 161 162 165 161 155 150 156 155 143 129 131 134 133 125 117 105 92 80
190 181 182 182 182 178 175 169 169 169 174 183 192 198 196 188 178 172 177 181 186 188 182 183 173 166 166 168 169 166 159 166 168 164 154 150 159 152 141 132 117 97 84
190 191 193 187 182 180 183 178 172 171 162 190 196 196 195 183 179 178 187 182 181 186 188 188 183 175 174 174 172 175 172 182 185 193 193 180 191 178 168 157 140 123 94
200 195 210 203 183 176 187 185 176 169 156 150 188 201 197 185 182 182 188 187 188 192 192 195 191 186 180 177 178 182 186 193 196 195 210 216 208 202 200 190 178 162 146
226 201 202 201 193 194 189 184 182 180 160 137 157 211 198 190 188 189 193 190 194 196 199 196 196 191 187 183 180 190 194 207 207 208 204 219 219 217 214 214 212 213 218
243 218 215 212 213 197 181 175 181 189 200 215 221 235 220 204 197 191 195 195 198 201 202 197 198 198 198 196 198 203 210 214 221 215 219 218 229 228 226 227 225 238 243
248 229 218 215 219 221 216 209 215 217 230 253 242 230 215 214 217 199 198 202 202 207 210 203 203 204 205 205 210 211 215 219 221 220 220 220 227 233 229 233 239 247 253
237 231 210 198 202 225 226 219 228 239 237 262 225 217 209 214 203 205 207 210 208 210 215 213 210 207 208 213 221 222 221 220 226 229 226 217 228 236 233 230 237 250 258
248 215 204 196 196 200 226 225 222 225 220 249 214 203 196 226 226 206 211 215 217 216 216 217 210 212 218 217 221 219 222 226 219 228 226 226 232 235 233 228 235 247 259
234 209 207 206 201 181 228 232 222 216 221 226 205 206 192 216 225 219 213 216 223 219 215 215 216 218 217 218 221 223 226 228 228 230 233 235 243 238 240 237 230 242 250
236 224 218 210 199 196 202 220 223 214 213 211 213 210 216 210 221 217 215 216 219 211 215 211 210 211 218 219 220 225 229 235 233 230 229 234 237 234 233 217 225 236 249
217 211 210 206 208 207 204 212 217 216 223 222 222 225 220 215 214 214 209 213 220 216 211 206 212 214 216 220 221 232 237 239 238 234 225 232 234 230 211 212 223 238 243
203 206 201 207 206 208 214 211 212 221 224 225 223 233 234 221 216 213 219 210 208 208 214 216 211 213 220 212 196 171 228 245 239 231 232 226 234 207 199 209 225 240 250
160 199 210 213 215 226 222 228 225 208 219 211 220 241 241 230 219 216 219 217 213 216 217 215 214 214 209 210 207 173 159 217 189 225 233 233 212 196 201 204 220 231 244
76 91 114 99 239 245 236 235 242 221 217 222 237 244 254 240 226 217 217 220 218 215 216 218 216 216 215 202 208 219 227 176 168 125 256 209 201 200 197 200 204 213 232
103 80 68 53 49 19 252 243 244 239 235 225 232 237 248 244 231 228 224 224 221 213 221 221 218 219 218 207 197 186 213 221 180 149 204 154 204 242 227 194 204 205 221
100 102 106 99 47 288 288 266 237 235 232 208 218 222 226 245 225 226 228 231 225 233 237 248 233 231 226 234 224 221 209 188 201 182 165 218 196 187 190 225 196 203 221